FW7718 Weather Reports


Display with metric or nautical units.
time (UTC)temp
F
wind
direction
speed
MPH
gust
MPH
rain 1hr
in
rain 24hr
in
rain mn
in
humidity
%
barometer
mb
20260902161739 91 98 4.0 6.0 0.00 0.00 0.00 53 1018.0
20260902161235 91 115 7.0 9.0 0.00 0.00 0.00 53 1018.2
20260902160732 91 126 7.0 8.0 0.00 0.00 0.00 53 1018.1
20260902160226 90 137 4.0 5.0 0.00 0.00 0.00 56 1018.0
20260902155724 89 143 4.0 5.0 0.00 0.00 0.00 56 1018.0
20260902155223 90 114 7.0 9.0 0.00 0.00 0.00 56 1017.8
20260902154718 89 83 7.0 8.0 0.00 0.00 0.00 58 1018.1
20260902154213 89 88 5.0 7.0 0.00 0.00 0.00 57 1018.1
20260902153712 89 105 5.0 7.0 0.00 0.00 0.00 58 1017.9
20260902153207 90 93 7.0 8.0 0.00 0.00 0.00 58 1018.2
20260902152703 89 77 2.0 3.0 0.00 0.00 0.00 59 1017.9
20260902152158 89 82 1.0 1.0 0.00 0.00 0.00 59 1018.2
20260902151654 89 117 2.0 2.0 0.00 0.00 0.00 58 1018.0
20260902151148 89 112 4.0 5.0 0.00 0.00 0.00 59 1018.0
20260902150643 88 105 1.0 2.0 0.00 0.00 0.00 62 1018.0
20260902150139 87 101 4.0 5.0 0.00 0.00 0.00 62 1018.1
20260902145633 87 87 4.0 6.0 0.00 0.00 0.00 62 1017.9
20260902145133 86 123 1.0 1.0 0.00 0.00 0.00 64 1017.9
20260902144629 86 136 3.0 3.0 0.00 0.00 0.00 65 1017.9
20260902144124 86 113 3.0 3.0 0.00 0.00 0.00 66 1017.7
20260902143619 86 120 4.0 5.0 0.00 0.00 0.00 66 1018.0
20260902143115 85 116 3.0 3.0 0.00 0.00 0.00 68 1018.0
20260902142610 85 112 5.0 7.0 0.00 0.00 0.00 68 1018.1
20260902142106 84 112 2.0 3.0 0.00 0.00 0.00 69 1017.7
20260902141605 84 111 5.0 6.0 0.00 0.00 0.00 69 1018.0
20260902141101 83 97 4.0 5.0 0.00 0.00 0.00 71 1017.9
20260902140555 83 132 5.0 7.0 0.00 0.00 0.00 72 1017.9
20260902140051 82 88 5.0 6.0 0.00 0.00 0.00 72 1017.8
20260902135551 83 93 5.0 6.0 0.00 0.00 0.00 71 1017.8
20260902135051 82 94 6.0 7.0 0.00 0.00 0.00 72 1017.9
20260902134546 82 80 5.0 6.0 0.00 0.00 0.00 72 1017.8
20260902134041 82 92 5.0 6.0 0.00 0.00 0.00 73 1017.6
20260902133535 82 82 5.0 6.0 0.00 0.00 0.00 72 1017.8
20260902133030 81 77 4.0 6.0 0.00 0.00 0.00 73 1017.8
20260902132525 81 82 4.0 5.0 0.00 0.00 0.00 74 1017.7
20260902132020 81 102 3.0 3.0 0.00 0.00 0.00 74 1017.8
20260902131517 80 91 4.0 5.0 0.00 0.00 0.00 75 1017.7
20260902131016 80 94 4.0 5.0 0.00 0.00 0.00 75 1017.7
20260902130512 79 83 4.0 5.0 0.00 0.00 0.00 77 1017.8
20260902130008 79 101 3.0 3.0 0.00 0.00 0.00 78 1017.7
20260902125503 78 93 2.0 2.0 0.00 0.00 0.00 80 1017.7
20260902124959 77 127 1.0 2.0 0.00 0.00 0.00 81 1017.7
20260902124455 77 127 2.0 2.0 0.00 0.00 0.00 81 1017.7
20260902123949 76 127 2.0 2.0 0.00 0.00 0.00 82 1017.6
20260902123446 76 128 2.0 2.0 0.00 0.00 0.00 83 1017.5
20260902122944 75 128 1.0 1.0 0.00 0.00 0.00 83 1017.6
20260902122440 75 128 1.0 1.0 0.00 0.00 0.00 83 1017.5
20260902121936 75 128 1.0 1.0 0.00 0.00 0.00 83 1017.5
20260902121436 74 128 1.0 1.0 0.00 0.00 0.00 84 1017.6
20260902120930 74 128 1.0 1.0 0.00 0.00 0.00 83 1017.3
20260902120427 74 128 0.0 1.0 0.00 0.00 0.00 83 1017.3
20260902115926 74 128 0.0 1.0 0.00 0.00 0.00 83 1017.4
20260902115422 74 128 0.0 0.0 0.00 0.00 0.00 84 1017.5
20260902114919 74 128 0.0 1.0 0.00 0.00 0.00 84 1017.6
20260902114414 74 128 0.0 1.0 0.00 0.00 0.00 84 1017.4
20260902113909 74 128 0.0 0.0 0.00 0.00 0.00 84 1017.6
20260902113405 74 128 0.0 0.0 0.00 0.00 0.00 84 1017.5
20260902112904 75 128 1.0 1.0 0.00 0.00 0.00 83 1017.4
20260902112401 75 128 1.0 1.0 0.00 0.00 0.00 83 1017.5
20260902111856 75 128 2.0 2.0 0.00 0.00 0.00 83 1017.3
20260902111353 75 128 1.0 1.0 0.00 0.00 0.00 83 1017.3
20260902110848 75 128 0.0 0.0 0.00 0.00 0.00 82 1017.3
20260902110344 75 128 1.0 1.0 0.00 0.00 0.00 82 1017.4
20260902105843 75 129 0.0 1.0 0.00 0.00 0.00 81 1017.4
20260902105338 75 129 1.0 1.0 0.00 0.00 0.00 79 1017.6
20260902104833 76 129 1.0 1.0 0.00 0.00 0.00 77 1017.4
20260902104329 76 129 0.0 0.0 0.00 0.00 0.00 78 1017.5
20260902103824 76 129 0.0 0.0 0.00 0.00 0.00 78 1017.2
20260902103319 76 129 0.0 0.0 0.00 0.00 0.00 79 1017.3
20260902102814 76 129 0.0 0.0 0.00 0.00 0.00 78 1017.5
20260902102312 77 129 0.0 0.0 0.00 0.00 0.00 78 1017.3
20260902101807 77 129 0.0 0.0 0.00 0.00 0.00 78 1017.2
20260902101307 77 129 0.0 0.0 0.00 0.00 0.00 77 1017.4
20260902100801 77 129 0.0 0.0 0.00 0.00 0.00 77 1017.1
20260902100301 78 129 0.0 0.0 0.00 0.00 0.00 76 1017.2
20260902095755 78 129 0.0 0.0 0.00 0.00 0.00 76 1017.2
20260902095250 78 129 0.0 0.0 0.00 0.00 0.00 76 1017.2
20260902094744 78 129 0.0 0.0 0.00 0.00 0.00 76 1017.1
20260902094241 78 129 0.0 0.0 0.00 0.00 0.00 76 1017.2
20260902093740 78 129 0.0 0.0 0.00 0.00 0.00 75 1017.0
20260902093235 78 129 0.0 1.0 0.00 0.00 0.00 75 1017.0
20260902092734 78 129 1.0 1.0 0.00 0.00 0.00 75 1017.0
20260902092229 78 127 2.0 2.0 0.00 0.00 0.00 76 1016.7
20260902091724 78 128 1.0 1.0 0.00 0.00 0.00 76 1016.7
20260902091220 78 129 2.0 2.0 0.00 0.00 0.00 77 1016.9
20260902090716 78 127 1.0 2.0 0.00 0.00 0.00 78 1016.9
20260902090215 77 127 2.0 2.0 0.00 0.00 0.00 79 1016.8
20260902085710 77 127 2.0 2.0 0.00 0.00 0.00 79 1017.0
20260902085205 77 127 1.0 1.0 0.00 0.00 0.00 80 1016.9
20260902084701 77 127 1.0 1.0 0.00 0.00 0.00 81 1017.0
20260902084157 77 127 1.0 1.0 0.00 0.00 0.00 81 1017.0
20260902083652 77 128 1.0 1.0 0.00 0.00 0.00 80 1016.8
20260902083151 77 128 0.0 1.0 0.00 0.00 0.00 79 1017.1
20260902082647 78 127 1.0 1.0 0.00 0.00 0.00 79 1017.0
20260902082144 78 127 1.0 1.0 0.00 0.00 0.00 78 1017.0
20260902081640 78 127 1.0 2.0 0.00 0.00 0.00 77 1016.9
20260902081140 79 128 2.0 2.0 0.00 0.00 0.00 75 1016.9
20260902080635 79 129 1.0 1.0 0.00 0.00 0.00 75 1016.9
20260902080131 79 129 0.0 0.0 0.00 0.00 0.00 75 1016.8
20260902075631 79 133 0.0 1.0 0.00 0.00 0.00 75 1016.7
20260902075122 79 133 0.0 0.0 0.00 0.00 0.00 75 1016.9
20260902074617 79 133 0.0 0.0 0.00 0.00 0.00 74 1016.9
20260902074112 79 133 0.0 0.0 0.00 0.00 0.00 73 1017.0
20260902073607 80 133 0.0 0.0 0.00 0.00 0.00 73 1017.0
20260902073103 80 133 0.0 0.0 0.00 0.00 0.00 73 1017.0
20260902072559 80 133 0.0 0.0 0.00 0.00 0.00 72 1017.3
20260902072056 80 133 0.0 0.0 0.00 0.00 0.00 72 1017.2
20260902071555 80 133 0.0 0.0 0.00 0.00 0.00 72 1017.2
20260902071051 81 133 0.0 1.0 0.00 0.00 0.00 71 1017.1
20260902070547 81 133 0.0 1.0 0.00 0.00 0.00 71 1017.0
20260902070041 81 133 1.0 1.0 0.00 0.00 0.00 70 1017.2
20260902065535 81 133 1.0 1.0 0.00 0.00 0.00 70 1017.5
20260902065030 81 133 1.0 1.0 0.00 0.00 0.00 70 1017.3
20260902064526 81 133 1.0 1.0 0.00 0.00 0.00 70 1017.3
20260902064022 81 133 1.0 1.0 0.00 0.00 0.00 69 1017.3
20260902063521 81 134 1.0 1.0 0.00 0.00 0.00 69 1017.3
20260902063017 82 140 1.0 2.0 0.00 0.00 0.00 69 1017.2
20260902062514 82 141 1.0 2.0 0.00 0.00 0.00 69 1017.2
20260902062010 82 141 2.0 2.0 0.00 0.00 0.00 68 1017.0
20260902061504 82 168 2.0 3.0 0.00 0.00 0.00 68 1017.1
20260902061001 82 156 2.0 2.0 0.00 0.00 0.00 68 1017.2
20260902060457 82 156 1.0 1.0 0.00 0.00 0.00 68 1017.0
20260902055952 82 156 0.0 1.0 0.00 0.00 0.00 67 1017.2
20260902055448 83 156 1.0 1.0 0.00 0.00 0.00 66 1017.1
20260902054944 83 156 1.0 2.0 0.00 0.00 0.00 66 1017.1
20260902054438 83 156 1.0 1.0 0.00 0.00 0.00 65 1017.1
20260902053934 83 156 1.0 2.0 0.00 0.00 0.00 65 1017.2
20260902053429 84 155 1.0 1.0 0.00 0.00 0.00 65 1017.2
20260902052928 84 160 2.0 2.0 0.00 0.00 0.00 64 1017.0
20260902052423 84 158 2.0 2.0 0.00 0.00 0.00 63 1017.2
20260902051919 84 172 3.0 5.0 0.00 0.00 0.00 63 1017.2
20260902051414 84 171 3.0 5.0 0.00 0.00 0.00 62 1017.0
20260902050912 84 172 3.0 5.0 0.00 0.00 0.00 62 1016.9
20260902050412 84 140 4.0 5.0 0.00 0.00 0.00 62 1017.0
20260902045907 84 155 3.0 3.0 0.00 0.00 0.00 61 1017.0
20260902045402 84 165 3.0 3.0 0.00 0.00 0.00 61 1016.9
20260902044859 85 164 2.0 2.0 0.00 0.00 0.00 60 1016.9
20260902044354 85 151 3.0 3.0 0.00 0.00 0.00 59 1016.8
20260902043849 85 140 3.0 3.0 0.00 0.00 0.00 59 1016.9
20260902043344 85 160 3.0 5.0 0.00 0.00 0.00 58 1016.8
20260902042839 85 151 2.0 2.0 0.00 0.00 0.00 58 1016.7
20260902042338 86 152 2.0 2.0 0.00 0.00 0.00 57 1017.0
20260902041833 86 140 2.0 3.0 0.00 0.00 0.00 56 1016.9
20260902041328 86 162 4.0 6.0 0.00 0.00 0.00 55 1016.6
20260902040827 87 156 3.0 5.0 0.00 0.00 0.00 54 1016.7
20260902040322 87 136 3.0 5.0 0.00 0.00 0.00 53 1016.5
20260902035821 87 134 3.0 3.0 0.00 0.00 0.00 53 1016.5
20260902035317 87 128 4.0 5.0 0.00 0.00 0.00 53 1016.6
20260902034815 87 128 3.0 3.0 0.00 0.00 0.00 53 1016.6
20260902034311 87 121 5.0 7.0 0.00 0.00 0.00 53 1016.7
20260902033808 87 114 4.0 6.0 0.00 0.00 0.00 53 1016.3
20260902033304 87 114 4.0 5.0 0.00 0.00 0.00 53 1016.5
20260902032803 87 111 4.0 6.0 0.00 0.00 0.00 53 1016.5
20260902032258 87 120 4.0 5.0 0.00 0.00 0.00 53 1016.3
20260902031757 87 96 3.0 3.0 0.00 0.00 0.00 52 1016.2
20260902031253 87 95 4.0 5.0 0.00 0.00 0.00 52 1016.6
20260902030749 88 118 3.0 3.0 0.00 0.00 0.00 52 1016.2
20260902030244 88 95 5.0 6.0 0.00 0.00 0.00 52 1015.8
20260902025742 88 95 3.0 5.0 0.00 0.00 0.00 52 1016.2
20260902025238 88 112 4.0 5.0 0.00 0.00 0.00 53 1016.2
20260902024732 87 110 5.0 6.0 0.00 0.00 0.00 53 1015.7
20260902024228 87 100 3.0 3.0 0.00 0.00 0.00 53 1015.6
20260902023724 87 107 4.0 5.0 0.00 0.00 0.00 53 1015.7
20260902023219 88 105 1.0 2.0 0.00 0.00 0.00 53 1015.7
20260902022719 88 108 2.0 2.0 0.00 0.00 0.00 53 1015.5
20260902022214 88 110 2.0 2.0 0.00 0.00 0.00 52 1015.2
20260902021709 88 112 2.0 2.0 0.00 0.00 0.00 52 1015.2
20260902021204 88 118 1.0 2.0 0.00 0.00 0.00 52 1015.3
20260902020700 88 113 2.0 2.0 0.00 0.00 0.00 52 1015.3
20260902020156 89 106 1.0 2.0 0.00 0.00 0.00 52 1015.2
20260902015651 89 102 2.0 2.0 0.00 0.00 0.00 51 1015.1
20260902015148 89 105 3.0 3.0 0.00 0.00 0.00 50 1014.9
20260902014643 89 97 2.0 2.0 0.00 0.00 0.00 50 1014.9
20260902014138 90 101 2.0 2.0 0.00 0.00 0.00 50 1014.9
20260902013637 90 120 3.0 3.0 0.00 0.00 0.00 50 1014.7
20260902013133 90 113 3.0 3.0 0.00 0.00 0.00 50 1014.8
20260902012629 90 102 2.0 2.0 0.00 0.00 0.00 49 1014.9
20260902012124 91 97 3.0 3.0 0.00 0.00 0.00 49 1014.7
20260902011620 91 102 3.0 3.0 0.00 0.00 0.00 48 1014.7
20260902011119 91 104 3.0 3.0 0.00 0.00 0.00 47 1014.7
20260902010619 91 100 3.0 3.0 0.00 0.00 0.00 47 1014.8
20260902010115 92 82 3.0 3.0 0.00 0.00 0.00 47 1014.8
20260902005612 92 108 4.0 6.0 0.00 0.00 0.00 46 1014.6
20260902005109 92 88 4.0 5.0 0.00 0.00 0.00 45 1014.7
20260902004608 93 106 3.0 3.0 0.00 0.00 0.00 45 1014.4
20260902004103 93 91 5.0 6.0 0.00 0.00 0.00 44 1014.6
20260902003558 93 111 5.0 7.0 0.00 0.00 0.00 43 1014.5
20260902003054 94 100 4.0 5.0 0.00 0.00 0.00 43 1014.5
20260902002549 94 99 5.0 6.0 0.00 0.00 0.00 43 1014.5
20260902002044 94 92 5.0 6.0 0.00 0.00 0.00 42 1014.6
20260902001539 95 94 5.0 6.0 0.00 0.00 0.00 42 1014.5
20260902001034 96 89 3.0 3.0 0.00 0.00 0.00 41 1014.6
20260902000528 96 97 5.0 7.0 0.00 0.00 0.00 40 1014.5
20260902000024 96 104 4.0 6.0 0.00 0.00 0.00 40 1014.6
20260901235518 96 109 5.0 7.0 0.00 0.00 0.00 40 1014.6
20260901235014 96 110 7.0 9.0 0.00 0.00 0.00 39 1014.7
20260901234512 97 115 8.0 11.0 0.00 0.00 0.00 39 1014.5
20260901234008 98 95 7.0 8.0 0.00 0.00 0.00 38 1014.5
20260901233503 98 107 9.0 11.0 0.00 0.00 0.00 37 1014.5
20260901232959 99 100 9.0 11.0 0.00 0.00 0.00 37 1014.5
20260901232454 99 146 5.0 5.0 0.00 0.00 0.00 36 1014.4
20260901231949 98 129 5.0 6.0 0.00 0.00 0.00 37 1014.9
20260901231445 98 142 3.0 5.0 0.00 0.00 0.00 38 1014.7
20260901230942 98 154 3.0 3.0 0.00 0.00 0.00 38 1014.5
20260901230441 98 144 7.0 9.0 0.00 0.00 0.00 36 1014.6
20260901225937 97 132 5.0 5.0 0.00 0.00 0.00 37 1014.6
20260901225436 98 105 5.0 6.0 0.00 0.00 0.00 37 1014.8
20260901224931 99 112 6.0 8.0 0.00 0.00 0.00 36 1014.8
20260901224427 98 100 4.0 5.0 0.00 0.00 0.00 37 1014.7
20260901223923 99 125 8.0 9.0 0.00 0.00 0.00 36 1014.7
20260901223418 99 91 3.0 3.0 0.00 0.00 0.00 36 1014.7
20260901222914 99 79 4.0 6.0 0.00 0.00 0.00 37 1014.8
20260901222410 99 107 2.0 2.0 0.00 0.00 0.00 35 1014.7
20260901221906 99 94 4.0 5.0 0.00 0.00 0.00 36 1014.9
20260901221402 99 99 4.0 5.0 0.00 0.00 0.00 36 1014.7
20260901220856 98 99 1.0 1.0 0.00 0.00 0.00 37 1014.9
20260901220354 98 97 3.0 3.0 0.00 0.00 0.00 38 1015.0
20260901215854 97 85 3.0 3.0 0.00 0.00 0.00 39 1014.9
20260901215353 97 98 4.0 5.0 0.00 0.00 0.00 38 1015.0
20260901214852 97 93 5.0 7.0 0.00 0.00 0.00 39 1015.1
20260901214351 98 99 4.0 5.0 0.00 0.00 0.00 38 1015.0
20260901213850 99 131 5.0 6.0 0.00 0.00 0.00 37 1015.1
20260901213345 101 126 9.0 10.0 0.00 0.00 0.00 35 1015.2
20260901212839 102 109 8.0 10.0 0.00 0.00 0.00 35 1015.0
20260901212335 101 124 3.0 5.0 0.00 0.00 0.00 35 1015.2
20260901211831 100 114 5.0 6.0 0.00 0.00 0.00 35 1015.4
20260901211327 100 109 9.0 11.0 0.00 0.00 0.00 35 1015.4
20260901210822 99 130 9.0 10.0 0.00 0.00 0.00 35 1015.2
20260901210318 100 121 7.0 8.0 0.00 0.00 0.00 36 1015.1
20260901205814 101 98 9.0 11.0 0.00 0.00 0.00 35 1015.5
20260901205314 100 123 8.0 9.0 0.00 0.00 0.00 35 1015.5
20260901204809 100 141 6.0 8.0 0.00 0.00 0.00 35 1015.5
20260901204306 100 109 6.0 7.0 0.00 0.00 0.00 36 1015.6
20260901203800 100 75 8.0 9.0 0.00 0.00 0.00 35 1015.7
20260901203259 100 149 8.0 9.0 0.00 0.00 0.00 35 1015.6
20260901202754 100 64 4.0 5.0 0.00 0.00 0.00 34 1015.7
20260901202250 101 68 8.0 10.0 0.00 0.00 0.00 34 1015.8
20260901201745 101 44 5.0 7.0 0.00 0.00 0.00 36 1015.9
20260901201244 101 142 6.0 8.0 0.00 0.00 0.00 35 1015.7
20260901200738 100 129 5.0 6.0 0.00 0.00 0.00 35 1016.0
20260901200234 99 89 0.0 1.0 0.00 0.00 0.00 36 1015.9
20260901195732 100 44 4.0 5.0 0.00 0.00 0.00 35 1016.0
20260901195226 99 72 6.0 8.0 0.00 0.00 0.00 38 1016.0
20260901194722 97 82 2.0 2.0 0.00 0.00 0.00 40 1016.2
20260901194216 99 83 4.0 5.0 0.00 0.00 0.00 37 1016.1
20260901193712 99 75 8.0 9.0 0.00 0.00 0.00 38 1016.2
20260901193207 99 94 5.0 7.0 0.00 0.00 0.00 37 1016.1
20260901192707 97 144 1.0 1.0 0.00 0.00 0.00 39 1016.2
20260901192201 98 168 1.0 1.0 0.00 0.00 0.00 38 1016.3
20260901191658 97 14 3.0 3.0 0.00 0.00 0.00 40 1016.5
20260901191154 97 341 2.0 3.0 0.00 0.00 0.00 40 1016.2
20260901190649 95 78 4.0 6.0 0.00 0.00 0.00 43 1016.5
20260901190148 97 78 0.0 0.0 0.00 0.00 0.00 41 1016.6
20260901185647 99 87 4.0 5.0 0.00 0.00 0.00 39 1017.1
20260901185145 98 157 1.0 2.0 0.00 0.00 0.00 40 1017.0
20260901184643 97 79 4.0 5.0 0.00 0.00 0.00 42 1017.2
20260901184136 96 98 2.0 2.0 0.00 0.00 0.00 42 1017.3
20260901183632 96 74 6.0 8.0 0.00 0.00 0.00 43 1017.5
20260901183121 97 93 0.0 0.0 0.00 0.00 0.00 42 1017.6
20260901182618 98 55 4.0 5.0 0.00 0.00 0.00 40 1017.6
20260901182116 98 92 1.0 2.0 0.00 0.00 0.00 41 1017.6
20260901181611 99 54 9.0 11.0 0.00 0.00 0.00 40 1017.8
20260901181110 99 68 3.0 3.0 0.00 0.00 0.00 42 1017.9
20260901180610 99 118 5.0 6.0 0.00 0.00 0.00 39 1017.8
20260901180104 100 80 5.0 6.0 0.00 0.00 0.00 39 1017.9
20260901175557 100 85 1.0 1.0 0.00 0.00 0.00 39 1018.2
20260901175052 99 96 2.0 2.0 0.00 0.00 0.00 40 1018.2
20260901174548 98 38 4.0 6.0 0.00 0.00 0.00 40 1018.4
20260901174044 97 122 2.0 2.0 0.00 0.00 0.00 41 1018.2
20260901173538 97 110 6.0 7.0 0.00 0.00 0.00 42 1018.4
20260901173034 97 130 1.0 3.0 0.00 0.00 0.00 43 1018.6
20260901172530 94 145 1.0 2.0 0.00 0.00 0.00 47 1018.7
20260901172028 94 228 2.0 2.0 0.00 0.00 0.00 46 1018.5
20260901171527 94 216 3.0 3.0 0.00 0.00 0.00 46 1018.8
20260901171025 94 170 2.0 2.0 0.00 0.00 0.00 45 1018.8
20260901170520 95 160 3.0 3.0 0.00 0.00 0.00 44 1018.8
20260901170015 96 178 4.0 5.0 0.00 0.00 0.00 44 1018.8
20260901165509 96 114 5.0 6.0 0.00 0.00 0.00 45 1018.8
20260901165005 95 145 4.0 6.0 0.00 0.00 0.00 45 1018.8
20260901164500 95 143 5.0 6.0 0.00 0.00 0.00 44 1018.7
20260901163954 94 86 1.0 1.0 0.00 0.00 0.00 45 1018.7
20260901163450 94 80 1.0 2.0 0.00 0.00 0.00 47 1019.0
20260901162948 94 106 2.0 2.0 0.00 0.00 0.00 47 1019.0
20260901162444 94 198 4.0 5.0 0.00 0.00 0.00 48 1019.0
20260901161943 94 168 2.0 3.0 0.00 0.00 0.00 47 1019.2